Погода в Корчуле

Хорватия     42°57′33″N   17°08′05″E
темп.,
°C
ветер,
м/с
пор.,
м/с
влажн.,
%
обл.,
%
осадки,
мм/ч
давл.,
гПа
погр.,
м
11 апреля, вс
вс1123:00+12вюв56595 0.0 1024474
02:00+11в466320 0.0 1024352
05:00+11в586698 0.0 1023396
08:00+11в586512 0.0 1023566
11:00+13юв9107289 0.0 1023909
14:00+13юв101168100 0.0 1023768
17:00+14юв6865100 0.1 1023653
20:00+14вюв6962100 0.1 1022488
12 апреля, пн
пн1223:00+14вюв6964100 0.0 1023512
02:00+13вюв6965100 0.0 1023545
05:00+13в586357 0.0 1021473
08:00+13в59645 0.0 1022572
11:00+14юв101275100 0.0 1021834
14:00+14юв9127696 0.0 1021775
17:00+14юв81174100 0.0 1020602
20:00+14вюв71170100 0.0 1020513
13 апреля, вт
вт1323:00+14вюв71173100 0.1 1019651
02:00+14вюв91180100 0.7 1018963
05:00+13вюв81178100 2.2 1017845
08:00+13вюв91371100 2.5 1017971
11:00+13юв121486100 1.7 1016943
14:00+14юв13148055 3.1 10151038
17:00+14юв1097986 2.6 1014571
20:00+13юв67808 4.7 1014513
14 апреля, ср
ср1423:00+12вюв447729 4.2 1014338
02:00+11всв447874 7.6 1014366
05:00+10св556253 0.3 1014367
08:00+9св56585 0.3 1015389
11:00+11с235168 0.0 1016593
14:00+12зюз225044 0.0 1016460
17:00+14сз234587 0.0 1015665
20:00+12ссв654960 0.0 1016720
15 апреля, чт
чт1523:00+11св66515 0.0 1017533
02:00+10св67565 0.0 1018538
05:00+9св44565 0.0 1018350
08:00+9св44570 0.0 1019322
11:00+10ссз12450 0.0 1020602
14:00+11з44500 0.0 1019435
17:00+12з55510 0.0 1019563
20:00+13зсз56500 0.0 1019772